Weather History for KDAN - November, 2011

Change the Weather History Date:

Friday, November 25, 2011

  Actual Average Record
Temperature  
Mean Temperature 48 °F 46 °F  
Max Temperature 69 °F 56 °F 79 °F (1973)
Min Temperature 27 °F 35 °F 15 °F (1956)
Degree Days  
Heating Degree Days 17 19  
Month to date heating degree days 374 374  
Since 1 July heating degree days 671 607  
Cooling Degree Days 0 0  
Month to date cooling degree days 1 0  
Year to date cooling degree days 1564 1436  
Moisture  
Dew Point 28 °F    
Average Humidity 58    
Maximum Humidity 100    
Minimum Humidity 15    
Precipitation  
Precipitation 0.00 in 0.11 in 1.64 in (1971)
Month to date precipitation 3.67 2.82  
Year to date precipitation 35.51 40.60  
Snow  
Snow 0.00 in - - ()
Month to date snowfall 0.0  
Since 1 July snowfall 0.0  
Since 1 September snowfall 0.0  
Snow Depth 0.00 in    
Sea Level Pressure  
Sea Level Pressure 30.29 in    
Wind  
Wind Speed 5 mph (SW)    
Max Wind Speed 18 mph    
Max Gust Speed 23 mph    
Visibility 10 miles    
Events      
T = Trace of Precipitation, MM = Missing Value Source: NWS Daily Summary

Daily Weather History Graph

Daily Weather History Graph

Search for Another Location

Airport or City:

Trip Planner

Search our weather history database for the weather conditions in past years. The results will help you decide how hot, cold, wet, or windy it might be!

Date:

Astronomy

Nov. 25, 2011 Rise Set
Actual Time 7:04 AM EST 5:03 PM EST
Civil Twilight 6:36 AM EST 5:31 PM EST
Nautical Twilight 6:05 AM EST 6:03 PM EST
Astronomical Twilight 5:34 AM EST 6:34 PM EST
Moon 7:29 AM EST (11/25) 5:31 PM EST (11/25)
Length of Visible Light 10h 54m
Length of Day
9h 58m
New Moon, 0% of the Moon is Illuminated
Nov 25
New Moon
Dec 2
First Quarter
Dec 10
Full
Dec 17
Last Quarter
Dec 24
New

Hourly Weather History & Observations

Time (EST) Temp. Windchill Dew Point Humidity Pressure Visibility Wind Dir Wind Speed Gust Speed Precip Events Conditions
12:53 AM 35.1 °F 31.0 °F 32.0 °F 89% 30.32 in 10.0 mi SW 4.6 mph - N/A   Clear
1:53 AM 32.0 °F - 30.2 °F 93% 30.33 in 10.0 mi Calm Calm - N/A   Clear
2:53 AM 32.0 °F - 28.9 °F 88% 30.32 in 10.0 mi Calm Calm - N/A   Clear
3:53 AM 28.9 °F 25.2 °F 28.9 °F 100% 30.32 in 10.0 mi SW 3.5 mph - N/A   Clear
4:53 AM 30.0 °F 26.5 °F 28.9 °F 96% 30.32 in 10.0 mi SW 3.5 mph - N/A   Clear
5:53 AM 28.9 °F 23.9 °F 28.0 °F 96% 30.33 in 10.0 mi SW 4.6 mph - N/A   Clear
6:53 AM 28.0 °F 22.8 °F 27.0 °F 96% 30.33 in 10.0 mi SW 4.6 mph - N/A   Clear
7:53 AM 30.0 °F 26.5 °F 28.9 °F 96% 30.34 in 10.0 mi SW 3.5 mph - N/A   Clear
8:53 AM 41.0 °F - 35.1 °F 79% 30.34 in 10.0 mi Calm Calm - N/A   Clear
9:53 AM 46.0 °F 43.9 °F 36.0 °F 68% 30.34 in 10.0 mi West 4.6 mph - N/A   Clear
11:53 AM 62.1 °F - 34.0 °F 35% 30.29 in 10.0 mi West 9.2 mph - N/A   Clear
12:53 PM 68.0 °F - 28.9 °F 23% 30.27 in 10.0 mi WSW 13.8 mph 17.3 mph N/A   Clear
2:53 PM 69.1 °F - 21.9 °F 17% 30.23 in 10.0 mi WSW 10.4 mph - N/A   Clear
3:53 PM 68.0 °F - 23.0 °F 18% 30.23 in 10.0 mi SW 8.1 mph - N/A   Clear
4:53 PM 62.1 °F - 24.1 °F 23% 30.22 in 10.0 mi SSW 5.8 mph - N/A   Clear
5:53 PM 51.1 °F - 27.0 °F 39% 30.23 in 10.0 mi Calm Calm - N/A   Clear
6:53 PM 51.1 °F - 26.1 °F 38% 30.24 in 10.0 mi Calm Calm - N/A   Clear
7:53 PM 46.0 °F - 24.1 °F 42% 30.25 in 10.0 mi Calm Calm - N/A   Clear
8:53 PM 42.1 °F 39.2 °F 26.1 °F 53% 30.26 in 10.0 mi SSW 4.6 mph - N/A   Clear
9:53 PM 44.6 °F 41.4 °F 26.6 °F 49% 30.27 in 10.0 mi SSW 5.8 mph - N/A   Clear
10:53 PM 43.0 °F 38.8 °F 27.0 °F 53% 30.26 in 10.0 mi SSW 6.9 mph - N/A   Clear
11:53 PM 44.6 °F 40.7 °F 26.6 °F 49% 30.28 in 10.0 mi SSW 6.9 mph - N/A   Clear